Location: Stavanger
(58.9670°N, 5.7500°E)
Time: 12:34:34
(UTC+02:00)

ISS - Pass Details

Date: 31 March 2019
Orbit: 408 x 410 km, 51.6° (Epoch: 25 April)

Event Time Altitude Azimuth Distance (km) Brightness Sun altitude
Rises 20:58:43 0° 252° (WSW) 2,338 1.0 -6.1°
Reaches altitude 10° 21:01:03 10° 238° (WSW) 1,476 -0.4 -6.4°
Maximum altitude 21:03:43 23° 184° (S) 930 -2.2 -6.7°
Drops below altitude 10° 21:06:24 10° 130° (SE) 1,474 -1.6 -7.1°
Enters shadow 21:06:41 - 127° (SE) 1,569 -1.5 -7.1°
